Regional Weather Roundup
Issued by NWS

Home | Current Version | Previous Version | Text Only | Print | Product List | Glossary Off
Versions: 1 2 3 4 5 6 7 8 9 10 11 12 13 14 15 16 17 18 19 20 21 22 23 24 25 26 27 28 29 30 31 32 33 34 35 36 37 38 39 40 41 42 43 44 45 46 47 48 49 50

000
ASUS43 KIND 291759
RWRIN

WEATHER ROUNDUP FOR INDIANA
NATIONAL WEATHER SERVICE INDIANAPOLIS IN
200 PM EDT SUN MAY 29 2016

NOTE: "FAIR" INDICATES FEW OR NO CLOUDS BELOW 12,000 FEET WITH NO
SIGNIFICANT WEATHER AND/OR OBSTRUCTIONS TO VISIBILITY.

* - STATION DOES NOT REPORT WEATHER SUCH AS PRECIPITATION OR FOG.

+ - STATION NOT QUALITY CONTROLLED BY THE NATIONAL WEATHER SERVICE.
    USE DATA WITH CAUTION...ESPECIALLY DEWPOINT AND RELATIVE
    HUMIDITY OBSERVATIONS.

INZ001>003-010>013-019-020-291900-
NORTHWEST INDIANA

CITY           SKY/WX    TMP DP  RH WIND       PRES   REMARKS
GARY /AIRPORT/ MOSUNNY   81  66  61 W21       30.02S
RENSSELAER +   MOSUNNY   82  54  36 SW18G25   30.04S

$$

LMZ046-743>745-291900-
SOUTHERN LAKE MICHIGAN

STATION/POSITION TIME  TEMP    WIND        PRES    WAVE
                       AIR SEA DIR/SP/G            HT
                 (UTC) (F)     (DEG/KT/KT) (MB)    (FT)
BURNS HARBOR     1700   76     240/ 20/ 25 1016.3F
MICHIGAN CITY    1700   72     230/ 20/ 21   N/A
5NW MICH CITY    1700   65 57  260/ 10/ 12   N/A     1

$$

INZ004-005-014>016-021>024-291900-
NORTH CENTRAL INDIANA

CITY           SKY/WX    TMP DP  RH WIND       PRES   REMARKS
ELKHART          N/A     82  61  47 MISG      30.01F
GOSHEN         MOSUNNY   82  57  42 SW20G25   30.01F
6HR MIN TEMP:  70; 6HR MAX TEMP:  83;

SOUTH BEND     PTSUNNY   83  56  39 SW20G26   30.01F
6HR MIN TEMP:  67; 6HR MAX TEMP:  84;


$$

INZ006>009-017-018-025>027-291900-
NORTHEAST INDIANA

CITY           SKY/WX    TMP DP  RH WIND       PRES   REMARKS
ANGOLA *+        N/A     86  81  84 SW17      30.01F HX 102
FORT WAYNE     PTSUNNY   88  61  40 W18       30.02F
6HR MIN TEMP:  71; 6HR MAX TEMP:  88;


$$

INZ028-029-035-036-043>045-051>053-291900-
WEST CENTRAL INDIANA

CITY           SKY/WX    TMP DP  RH WIND       PRES   REMARKS
CRAWFORDSVL +  PTSUNNY   79  61  54 W10       30.07F
6HR MIN TEMP:  69; 6HR MAX TEMP:  82;

GREENCASTLE +  PTSUNNY   81  68  65 SW6       30.08F
LAFAYETTE      MOSUNNY   82  57  42 W13       30.04F
6HR MIN TEMP:  68; 6HR MAX TEMP:  83;

TERRE HAUTE    MOSUNNY   84  64  50 W9        30.08S
6HR MIN TEMP:  69; 6HR MAX TEMP:  84;


$$

INZ030>032-037>040-046>048-054>057-064-065-291900-
CENTRAL INDIANA

CITY           SKY/WX    TMP DP  RH WIND       PRES   REMARKS
COLUMBUS       PTSUNNY   84  64  51 W9        30.07F
INDIANAPOLIS   PTSUNNY   83  64  52 SW6       30.05F
6HR MIN TEMP:  70; 6HR MAX TEMP:  84;

-EAGLE CREEK   MOSUNNY   84  62  47 SW8       30.05F
6HR MIN TEMP:  71; 6HR MAX TEMP:  84;

KOKOMO *+      MOSUNNY   82  61  47 W14G23    30.04S
6HR MIN TEMP:  72; 6HR MAX TEMP:  84;

SHELBYVILLE    MOSUNNY   87  62  43 SW10G21   30.06F
6HR MIN TEMP:  72; 6HR MAX TEMP:  88;


$$

INZ033-034-041-042-049-050-058-059-291900-
EAST CENTRAL INDIANA

CITY           SKY/WX    TMP DP  RH WIND       PRES   REMARKS
MUNCIE         PTSUNNY   85  63  47 W8G17     30.05F
6HR MIN TEMP:  72; 6HR MAX TEMP:  87;


$$

INZ060-061-067>069-081>083-085>088-291900-
SOUTHWEST INDIANA

CITY           SKY/WX    TMP DP  RH WIND       PRES   REMARKS
EVANSVILLE     PTSUNNY   83  67  58 SW7       30.08F
6HR MIN TEMP:  69; 6HR MAX TEMP:  84;

HUNTINGBURG *+ CLOUDY    82  66  57 SW12      30.09S
6HR MIN TEMP:  70; 6HR MAX TEMP:  82;


$$

INZ062-063-066-070>080-084-089>092-291900-
SOUTH CENTRAL AND SOUTHEAST INDIANA

CITY           SKY/WX    TMP DP  RH WIND       PRES   REMARKS
BLOOMINGTON    MOSUNNY   83  64  52 W10       30.08F HAZE
6HR MIN TEMP:  69; 6HR MAX TEMP:  85;

MADISON *+     PTSUNNY   84  63  48 SW10      30.10F
SEYMOUR +      MOSUNNY   84  64  51 SW8G21    30.07F

$$





USA.gov is the U.S. government's official web portal to all federal, state and local government web resources and services.